SVFLIR Weather Reports


Display with metric or nautical units.
time (UTC)temp
F
wind
direction
speed
MPH
gust
MPH
rain 1hr
in
rain 24hr
in
rain mn
in
humidity
%
barometer
mb
20260906165216 94 132 4.0 7.0 0.00 0.00 0.00 100 1009.4
20260906164716 94 130 1.0 7.0 0.00 0.00 0.00 100 1009.4
20260906164209 92 112 6.0 8.0 0.00 0.00 0.00 100 1009.4
20260906163709 92 220 3.0 8.0 0.00 0.00 0.00 100 1009.4
20260906163418 91 182 1.0 7.0 0.00 0.00 0.00 100 1009.4
20260906162657 91 177 4.0 8.0 0.00 0.00 0.00 100 1009.4
20260906162156 91 185 5.0 8.0 0.00 0.00 0.00 100 1009.4
20260906161656 90 177 4.0 8.0 0.00 0.00 0.00 100 1009.4
20260906161155 90 215 4.0 8.0 0.00 0.00 0.00 100 1009.4
20260906160654 91 209 3.0 7.0 0.00 0.00 0.00 100 1009.4
20260906160425 89 203 3.0 7.0 0.00 0.00 0.00 100 1009.4
20260906155654 88 202 3.0 6.0 0.00 0.00 0.00 100 1009.4
20260906155153 88 177 1.0 6.0 0.00 0.00 0.00 100 1009.4
20260906154638 88 198 1.0 6.0 0.00 0.00 0.00 100 1009.4
20260906154138 87 163 3.0 6.0 0.00 0.00 0.00 100 1009.4
20260906153637 87 171 0.0 4.0 0.00 0.00 0.00 100 1009.4
20260906153136 87 161 0.0 4.0 0.00 0.00 0.00 100 1009.4
20260906152356 87 210 0.0 0.0 0.00 0.00 0.00 100 1009.4
20260906151626 86 210 0.0 2.0 0.00 0.00 0.00 100 1009.4
20260906151055 86 317 0.0 1.0 0.00 0.00 0.00 100 1009.4
20260906150532 85 317 0.0 0.0 0.00 0.00 0.00 100 1009.4
20260906150029 87 317 0.0 0.0 0.00 0.00 0.00 100 1009.4
20260906145521 87 317 0.0 0.0 0.00 0.00 0.00 100 1009.4
20260906145240 85 317 0.0 0.0 0.00 0.00 0.00 100 1009.4
20260906144506 85 317 0.0 0.0 0.00 0.00 0.00 100 1009.4
20260906143951 84 317 0.0 0.0 0.00 0.00 0.00 100 1009.4
20260906143450 84 317 0.0 0.0 0.00 0.00 0.00 100 1009.4
20260906142942 84 317 0.0 0.0 0.00 0.00 0.00 100 1009.4
20260906142420 84 317 0.0 0.0 0.00 0.00 0.00 100 1009.4
20260906141919 83 317 0.0 0.0 0.00 0.00 0.00 100 1009.4
20260906141409 82 317 0.0 0.0 0.00 0.00 0.00 100 1009.4
20260906140841 82 317 0.0 0.0 0.00 0.00 0.00 100 1009.4
20260906140329 81 317 0.0 0.0 0.00 0.00 0.00 100 1009.4
20260906135820 79 317 0.0 0.0 0.00 0.00 0.00 100 1009.4
20260906135300 78 317 0.0 0.0 0.00 0.00 0.00 100 1009.4
20260906134740 78 317 0.0 0.0 0.00 0.00 0.00 100 1009.4
20260906134214 77 317 0.0 0.0 0.00 0.00 0.00 100 1009.4
20260906133704 76 317 0.0 0.0 0.00 0.00 0.00 100 1009.4
20260906133154 76 317 0.0 0.0 0.00 0.00 0.00 100 1009.4
20260906132643 76 317 0.0 0.0 0.00 0.00 0.00 100 1009.4
20260906132140 76 317 0.0 0.0 0.00 0.00 0.00 100 1009.4
20260906131630 75 317 0.0 2.0 0.00 0.00 0.00 100 1009.4
20260906131128 75 317 0.0 4.0 0.00 0.00 0.00 100 1009.4
20260906130622 75 319 2.0 4.0 0.00 0.00 0.00 100 1009.4
20260906130121 75 331 3.0 4.0 0.00 0.00 0.00 100 1009.4
20260906125620 75 348 0.0 0.0 0.00 0.00 0.00 100 1009.4
20260906125119 74 348 0.0 0.0 0.00 0.00 0.00 100 1009.4
20260906124609 75 348 0.0 1.0 0.00 0.00 0.00 100 1009.4
20260906124042 75 348 0.0 1.0 0.00 0.00 0.00 100 1009.4
20260906123516 75 348 0.0 2.0 0.00 0.00 0.00 100 1009.4
20260906123009 75 15 0.0 2.0 0.00 0.00 0.00 100 1009.4
20260906122734 75 15 0.0 3.0 0.00 0.00 0.00 100 1009.4
20260906122003 64 14 3.0 4.0 0.00 0.00 0.00 100 1009.4
20260906121500 60 357 2.0 4.0 0.00 0.00 0.00 100 1009.4
20260906120959 67 338 4.0 4.0 0.00 0.00 0.00 100 1009.4
20260906120458 67 310 0.0 0.0 0.00 0.00 0.00 100 1009.4
20260906115955 65 310 0.0 0.0 0.00 0.00 0.00 100 1009.4
20260906115447 71 310 0.0 0.0 0.00 0.00 0.00 100 1009.4
20260906114937 71 310 0.0 0.0 0.00 0.00 0.00 100 1009.4
20260906114433 73 310 0.0 0.0 0.00 0.00 0.00 100 1009.4
20260906113932 67 310 0.0 0.0 0.00 0.00 0.00 100 1009.4
20260906113422 68 310 0.0 0.0 0.00 0.00 0.00 100 1009.4
20260906112916 70 310 0.0 0.0 0.00 0.00 0.00 100 1009.4
20260906112412 72 310 0.0 0.0 0.00 0.00 0.00 100 1009.4
20260906111857 74 310 0.0 0.0 0.00 0.00 0.00 100 1009.4
20260906111350 73 310 0.0 0.0 0.00 0.00 0.00 100 1009.4
20260906110849 73 310 0.0 0.0 0.00 0.00 0.00 100 1009.4
20260906110345 71 310 0.0 0.0 0.00 0.00 0.00 100 1009.4
20260906105842 72 310 0.0 0.0 0.00 0.00 0.00 100 1009.4
20260906105311 71 310 0.0 0.0 0.00 0.00 0.00 100 1009.4
20260906104810 72 310 0.0 0.0 0.00 0.00 0.00 100 1009.4
20260906104309 73 310 0.0 0.0 0.00 0.00 0.00 100 1009.4
20260906104026 74 310 0.0 0.0 0.00 0.00 0.00 100 1009.4
20260906103300 74 310 0.0 0.0 0.00 0.00 0.00 100 1009.4
20260906102727 73 310 0.0 0.0 0.00 0.00 0.00 100 1009.4
20260906102207 74 310 0.0 0.0 0.00 0.00 0.00 100 1009.4
20260906101706 73 310 0.0 0.0 0.00 0.00 0.00 100 1009.4
20260906101203 73 310 0.0 0.0 0.00 0.00 0.00 100 1009.4
20260906100701 75 310 0.0 0.0 0.00 0.00 0.00 100 1009.4
20260906100156 76 310 0.0 0.0 0.00 0.00 0.00 100 1009.4
20260906095656 76 310 0.0 0.0 0.00 0.00 0.00 100 1009.4
20260906095130 76 310 0.0 0.0 0.00 0.00 0.00 100 1009.4
20260906094618 72 310 0.0 0.0 0.00 0.00 0.00 100 1009.4
20260906094117 71 310 0.0 0.0 0.00 0.00 0.00 100 1009.4
20260906093608 72 310 0.0 0.0 0.00 0.00 0.00 100 1009.4
20260906093035 72 310 0.0 0.0 0.00 0.00 0.00 100 1009.4
20260906092534 72 310 0.0 0.0 0.00 0.00 0.00 100 1009.4
20260906092022 71 310 0.0 0.0 0.00 0.00 0.00 100 1009.4
20260906091728 70 310 0.0 0.0 0.00 0.00 0.00 100 1009.4
20260906091008 72 310 0.0 0.0 0.00 0.00 0.00 100 1009.4
20260906090501 74 310 0.0 0.0 0.00 0.00 0.00 100 1009.4
20260906085939 74 310 0.0 0.0 0.00 0.00 0.00 100 1009.4
20260906085438 74 310 0.0 0.0 0.00 0.00 0.00 100 1009.4
20260906084418 76 310 0.0 0.0 0.00 0.00 0.00 100 1009.4
20260906083907 76 310 0.0 0.0 0.00 0.00 0.00 100 1009.4
20260906083353 69 310 0.0 0.0 0.00 0.00 0.00 100 1009.4
20260906082848 69 310 0.0 0.0 0.00 0.00 0.00 100 1009.4
20260906082337 72 310 0.0 0.0 0.00 0.00 0.00 100 1009.4
20260906082055 69 310 0.0 0.0 0.00 0.00 0.00 100 1009.4
20260906081324 70 310 0.0 0.0 0.00 0.00 0.00 100 1009.4
20260906080815 70 310 0.0 0.0 0.00 0.00 0.00 100 1009.4
20260906080312 72 310 0.0 0.0 0.00 0.00 0.00 100 1009.4
20260906080032 73 310 0.0 0.0 0.00 0.00 0.00 100 1009.4
20260906075307 72 310 0.0 0.0 0.00 0.00 0.00 100 1009.4
20260906074800 74 310 0.0 4.0 0.00 0.00 0.00 100 1009.4
20260906074258 74 310 0.0 4.0 0.00 0.00 0.00 100 1009.4
20260906073745 75 320 3.0 3.0 0.00 0.00 0.00 100 1009.4
20260906073245 75 50 0.0 0.0 0.00 0.00 0.00 100 1009.4
20260906072742 75 50 0.0 0.0 0.00 0.00 0.00 100 1009.4
20260906072241 76 50 0.0 0.0 0.00 0.00 0.00 100 1009.4
20260906071722 77 50 0.0 0.0 0.00 0.00 0.00 100 1009.4
20260906071207 77 50 0.0 0.0 0.00 0.00 0.00 100 1009.4
20260906070645 77 50 0.0 4.0 0.00 0.00 0.00 100 1009.4
20260906070142 77 50 0.0 4.0 0.00 0.00 0.00 100 1009.4
20260906065853 77 78 4.0 4.0 0.00 0.00 0.00 100 1009.4
20260906065352 77 5 0.0 0.0 0.00 0.00 0.00 100 1009.4
20260906064625 77 5 0.0 0.0 0.00 0.00 0.00 100 1009.4
20260906064103 76 5 0.0 0.0 0.00 0.00 0.00 100 1009.4
20260906063600 77 5 0.0 0.0 0.00 0.00 0.00 100 1009.4
20260906063052 78 5 0.0 0.0 0.00 0.00 0.00 100 1009.4
20260906062541 79 5 0.0 0.0 0.00 0.00 0.00 100 1009.4
20260906062032 79 5 0.0 3.0 0.00 0.00 0.00 100 1009.4
20260906061517 80 5 0.0 4.0 0.00 0.00 0.00 100 1009.4
20260906061211 80 5 0.0 6.0 0.00 0.00 0.00 100 1009.4
20260906060706 80 26 4.0 6.0 0.00 0.00 0.00 100 1009.4
20260906055947 80 43 5.0 6.0 0.00 0.00 0.00 100 1009.4
20260906055447 79 23 5.0 6.0 0.00 0.00 0.00 100 1009.4
20260906055211 79 37 4.0 8.0 0.00 0.00 0.00 100 1009.4
20260906054445 80 22 5.0 8.0 0.00 0.00 0.00 100 1009.4
20260906053944 79 63 7.0 8.0 0.00 0.00 0.00 100 1009.4
20260906053444 79 57 6.0 7.0 0.00 0.00 0.00 100 1009.4
20260906052942 79 45 4.0 5.0 0.00 0.00 0.00 100 1009.4
20260906052710 79 18 0.0 2.0 0.00 0.00 0.00 100 1009.4
20260906051938 80 18 0.0 4.0 0.00 0.00 0.00 100 1009.4
20260906051438 79 18 0.0 4.0 0.00 0.00 0.00 100 1009.4
20260906050931 79 61 3.0 4.0 0.00 0.00 0.00 100 1009.4
20260906050430 78 19 0.0 0.0 0.00 0.00 0.00 100 1009.4
20260906045927 80 19 0.0 0.0 0.00 0.00 0.00 100 1009.4
20260906045419 80 19 0.0 0.0 0.00 0.00 0.00 100 1009.4
20260906044857 80 19 0.0 0.0 0.00 0.00 0.00 100 1009.4
20260906043848 83 19 0.0 0.0 0.00 0.00 0.00 100 1009.4
20260906043347 80 19 0.0 3.0 0.00 0.00 0.00 100 1009.4
20260906042833 79 19 0.0 3.0 0.00 0.00 0.00 100 1009.4
20260906042331 81 40 2.0 3.0 0.00 0.00 0.00 100 1009.4
20260906042048 83 298 0.0 0.0 0.00 0.00 0.00 100 1009.4
20260906041307 80 298 0.0 0.0 0.00 0.00 0.00 100 1009.4
20260906040804 81 298 0.0 1.0 0.00 0.00 0.00 100 1009.4
20260906040255 79 298 0.0 1.0 0.00 0.00 0.00 100 1009.4
20260906040018 81 324 0.0 0.0 0.00 0.00 0.00 100 1009.4
20260906035512 80 324 0.0 0.0 0.00 0.00 0.00 100 1009.4
20260906034751 74 324 0.0 0.0 0.00 0.00 0.00 100 1009.4
20260906033744 77 324 0.0 0.0 0.00 0.00 0.00 100 1009.4
20260906033239 76 324 0.0 0.0 0.00 0.00 0.00 100 1009.4
20260906032730 79 324 0.0 0.0 0.00 0.00 0.00 100 1009.4
20260906032226 79 324 0.0 0.0 0.00 0.00 0.00 100 1009.4
20260906031725 80 324 0.0 0.0 0.00 0.00 0.00 100 1009.4
20260906031436 81 324 0.0 3.0 0.00 0.00 0.00 100 1009.4
20260906030652 82 324 0.0 6.0 0.00 0.00 0.00 100 1009.4
20260906030146 83 333 2.0 6.0 0.00 0.00 0.00 100 1009.4
20260906025646 83 317 5.0 7.0 0.00 0.00 0.00 100 1009.4
20260906025409 83 303 4.0 9.0 0.00 0.00 0.00 100 1009.4
20260906024645 83 327 6.0 9.0 0.00 0.00 0.00 100 1009.4
20260906024144 83 316 6.0 10.0 0.00 0.00 0.00 100 1009.4
20260906023643 83 296 7.0 10.0 0.00 0.00 0.00 100 1009.4
20260906023143 88 284 7.0 12.0 0.00 0.00 0.00 100 1009.4
20260906022642 85 278 9.0 12.0 0.00 0.00 0.00 100 1009.4
20260906022141 86 292 10.0 12.0 0.00 0.00 0.00 100 1009.4
20260906021642 86 310 8.0 12.0 0.00 0.00 0.00 100 1009.4
20260906021358 86 296 8.0 13.0 0.00 0.00 0.00 100 1009.4
20260906020640 86 295 9.0 14.0 0.00 0.00 0.00 100 1009.4
20260906020140 87 295 9.0 14.0 0.00 0.00 0.00 100 1009.4
20260906015639 88 282 11.0 13.0 0.00 0.00 0.00 100 1009.4
20260906015138 90 302 9.0 14.0 0.00 0.00 0.00 100 1009.4
20260906014137 92 293 9.0 15.0 0.00 0.00 0.00 100 1009.4
20260906013636 92 296 10.0 15.0 0.00 0.00 0.00 100 1009.4
20260906013136 93 291 13.0 16.0 0.00 0.00 0.00 100 1009.4
20260906012636 93 291 11.0 16.0 0.00 0.00 0.00 100 1009.4
20260906012135 93 285 10.0 16.0 0.00 0.00 0.00 100 1009.4
20260906011634 93 307 11.0 15.0 0.00 0.00 0.00 100 1009.4
20260906011401 94 291 9.0 15.0 0.00 0.00 0.00 100 1009.4
20260906010633 94 261 10.0 15.0 0.00 0.00 0.00 100 1009.4
20260906010132 94 300 11.0 18.0 0.00 0.00 0.00 100 1009.4
20260906005631 94 279 11.0 18.0 0.00 0.00 0.00 100 1009.4
20260906005131 94 295 10.0 15.0 0.00 0.00 0.00 100 1009.4
20260906004630 95 281 11.0 15.0 0.00 0.00 0.00 100 1009.4
20260906004351 95 333 6.0 13.0 0.00 0.00 0.00 100 1009.4
20260906003630 95 261 10.0 13.0 0.00 0.00 0.00 100 1009.4
20260906003129 94 285 9.0 13.0 0.00 0.00 0.00 100 1009.4
20260906002628 96 292 6.0 13.0 0.00 0.00 0.00 100 1009.4
20260906002128 96 329 9.0 13.0 0.00 0.00 0.00 100 1009.4
20260906001627 95 334 8.0 14.0 0.00 0.00 0.00 100 1009.4
20260906001346 95 274 9.0 17.0 0.00 0.00 0.00 100 1009.4
20260906000626 95 284 13.0 17.0 0.00 0.00 0.00 100 1009.4
20260906000125 95 305 12.0 15.0 0.00 0.00 0.00 100 1009.4
20260905235624 95 319 6.0 15.0 0.00 0.00 0.00 100 1009.4
20260905235124 96 282 9.0 13.0 0.00 0.00 0.00 100 1009.4
20260905234623 97 316 9.0 14.0 0.00 0.00 0.00 100 1009.4
20260905234343 97 267 10.0 14.0 0.00 0.00 0.00 100 1009.4
20260905233621 97 275 6.0 13.0 0.00 0.00 0.00 100 1009.4
20260905233122 96 323 9.0 13.0 0.00 0.00 0.00 100 1009.4
20260905232621 96 9 5.0 12.0 0.00 0.00 0.00 100 1009.4
20260905232337 95 265 8.0 14.0 0.00 0.00 0.00 100 1009.4
20260905231620 96 291 9.0 14.0 0.00 0.00 0.00 100 1009.4
20260905231343 95 282 10.0 13.0 0.00 0.00 0.00 100 1009.4
20260905230618 95 282 7.0 14.0 0.00 0.00 0.00 100 1009.4
20260905230117 95 270 8.0 14.0 0.00 0.00 0.00 100 1009.4
20260905225618 95 285 7.0 14.0 0.00 0.00 0.00 100 1009.4
20260905225116 95 267 7.0 15.0 0.00 0.00 0.00 100 1009.4
20260905224616 96 261 11.0 15.0 0.00 0.00 0.00 100 1009.4
20260905223615 97 341 3.0 9.0 0.00 0.00 0.00 100 1009.4
20260905223114 96 281 6.0 13.0 0.00 0.00 0.00 100 1009.4
20260905222613 96 310 9.0 13.0 0.00 0.00 0.00 100 1009.4
20260905222113 96 288 7.0 12.0 0.00 0.00 0.00 100 1009.4
20260905221613 96 338 6.0 15.0 0.00 0.00 0.00 100 1009.4
20260905221111 96 278 11.0 16.0 0.00 0.00 0.00 100 1009.4
20260905220610 97 223 4.0 16.0 0.00 0.00 0.00 100 1009.4
20260905220111 97 270 9.0 12.0 0.00 0.00 0.00 100 1009.4
20260905215610 97 202 0.0 14.0 0.00 0.00 0.00 100 1009.4
20260905215047 92 310 6.0 15.0 0.00 0.00 0.00 100 1009.4
20260905214546 94 278 5.0 15.0 0.00 0.00 0.00 100 1009.4
20260905214046 94 288 13.0 17.0 0.00 0.00 0.00 100 1009.4
20260905213545 94 324 5.0 21.0 0.00 0.00 0.00 100 1009.4
20260905213045 96 281 11.0 21.0 0.00 0.00 0.00 100 1009.4
20260905212544 93 271 8.0 20.0 0.00 0.00 0.00 100 1009.4
20260905212043 93 319 0.0 11.0 0.00 0.00 0.00 100 1009.4
20260905211542 94 174 1.0 11.0 0.00 0.00 0.00 100 1009.4
20260905211036 97 230 7.0 11.0 0.00 0.00 0.00 100 1009.4
20260905210535 97 292 8.0 12.0 0.00 0.00 0.00 100 1009.4
20260905210035 95 282 2.0 16.0 0.00 0.00 0.00 100 1009.4
20260905205746 92 274 7.0 16.0 0.00 0.00 0.00 100 1009.4
20260905205244 92 250 8.0 16.0 0.00 0.00 0.00 100 1009.4
20260905204744 93 305 7.0 9.0 0.00 0.00 0.00 100 1009.4
20260905204024 92 185 0.0 9.0 0.00 0.00 0.00 100 1009.4
20260905203520 91 126 6.0 11.0 0.00 0.00 0.00 100 1009.4
20260905203019 88 215 5.0 12.0 0.00 0.00 0.00 100 1009.4
20260905202518 94 189 9.0 12.0 0.00 0.00 0.00 100 1009.4
20260905202017 92 225 0.0 9.0 0.00 0.00 0.00 100 1009.4
20260905201518 93 291 0.0 9.0 0.00 0.00 0.00 100 1009.4
20260905201017 93 215 0.0 11.0 0.00 0.00 0.00 100 1009.4
20260905200511 92 247 0.0 13.0 0.00 0.00 0.00 100 1009.4
20260905200011 94 213 3.0 13.0 0.00 0.00 0.00 100 1009.4
20260905195510 94 202 8.0 13.0 0.00 0.00 0.00 100 1009.4
20260905195009 92 84 3.0 9.0 0.00 0.00 0.00 100 1009.4
20260905194510 88 219 6.0 9.0 0.00 0.00 0.00 100 1009.4
20260905194008 88 206 1.0 9.0 0.00 0.00 0.00 100 1009.4
20260905193506 87 246 5.0 10.0 0.00 0.00 0.00 100 1009.4
20260905192943 91 246 5.0 10.0 0.00 0.00 0.00 100 1009.4
20260905192442 90 243 6.0 10.0 0.00 0.00 0.00 100 1009.4
20260905191941 89 115 0.0 8.0 0.00 0.00 0.00 100 1009.4
20260905191435 88 130 5.0 9.0 0.00 0.00 0.00 100 1009.4
20260905190934 88 161 1.0 10.0 0.00 0.00 0.00 100 1009.4
20260905190428 89 157 6.0 10.0 0.00 0.00 0.00 100 1009.4
20260905185927 90 217 5.0 9.0 0.00 0.00 0.00 100 1009.4
20260905185426 92 150 4.0 9.0 0.00 0.00 0.00 100 1009.4
20260905184925 93 219 6.0 11.0 0.00 0.00 0.00 100 1009.4
20260905184650 94 220 6.0 11.0 0.00 0.00 0.00 100 1009.4
20260905183925 93 226 6.0 11.0 0.00 0.00 0.00 100 1009.4
20260905183424 95 250 0.0 8.0 0.00 0.00 0.00 100 1009.4
20260905182924 89 279 4.0 11.0 0.00 0.00 0.00 100 1009.4
20260905182144 90 140 5.0 10.0 0.00 0.00 0.00 100 1009.4
20260905181420 89 268 6.0 10.0 0.00 0.00 0.00 100 1009.4
20260905180919 92 257 6.0 9.0 0.00 0.00 0.00 100 1009.4
20260905180418 88 241 4.0 10.0 0.00 0.00 0.00 100 1009.4
20260905175917 82 127 2.0 10.0 0.00 0.00 0.00 100 1009.4
20260905175413 84 230 4.0 10.0 0.00 0.00 0.00 100 1009.4
20260905174912 85 192 7.0 9.0 0.00 0.00 0.00 100 1009.4
20260905174411 86 202 1.0 6.0 0.00 0.00 0.00 100 1009.4
20260905173909 87 151 0.0 6.0 0.00 0.00 0.00 100 1009.4
20260905173628 89 150 1.0 6.0 0.00 0.00 0.00 100 1009.4
20260905172908 90 229 0.0 5.0 0.00 0.00 0.00 100 1009.4
20260905172405 88 243 2.0 5.0 0.00 0.00 0.00 100 1009.4
20260905171905 89 261 2.0 5.0 0.00 0.00 0.00 100 1009.4
20260905171629 83 153 0.0 2.0 0.00 0.00 0.00 100 1009.4
20260905170853 85 153 0.0 3.0 0.00 0.00 0.00 100 1009.4
20260905170351 83 153 0.0 5.0 0.00 0.00 0.00 100 1009.4
20260905165846 89 225 0.0 5.0 0.00 0.00 0.00 100 1009.4